This is the latest recevied weather packets stored in our database for station/object NR6G-15. If no packets are shown the sender has not sent any weather packets the latest 10 day(s).
| Time | Temp. | Humidity | Pressure | Rain* | Wind** | Luminosity | Snow |
|---|---|---|---|---|---|---|---|
| 1788104398 | 16.67° C | 50% | 1022.6 hPa | 0 mm | - | - | - |
| 1788104098 | 16.67° C | 50% | 1022.6 hPa | 0 mm | - | - | - |
| 1788103689 | 16.67° C | 50% | 1022.7 hPa | 0 mm | - | - | - |
| 1788103388 | 17.22° C | 49% | 1022.6 hPa | 0 mm | - | - | - |
| 1788103032 | 17.22° C | 46% | 1022.7 hPa | 0 mm | - | - | - |
| 1788102732 | 17.22° C | 45% | 1022.7 hPa | 0 mm | - | - | - |
| 1788102432 | 17.22° C | 47% | 1022.8 hPa | 0 mm | - | - | - |
| 1788102132 | 17.22° C | 48% | 1022.7 hPa | 0 mm | - | - | - |
| 1788101833 | 16.67° C | 49% | 1022.8 hPa | 0 mm | - | - | - |
| 1788101532 | 16.67° C | 49% | 1022.8 hPa | 0 mm | - | - | - |
| 1788101232 | 16.11° C | 50% | 1022.7 hPa | 0 mm | - | - | - |
| 1788100932 | 16.11° C | 52% | 1022.6 hPa | 0 mm | - | - | - |
| 1788100632 | 16.11° C | 53% | 1022.6 hPa | 0 mm | - | - | - |
| 1788100332 | 16.11° C | 54% | 1022.6 hPa | 0 mm | - | - | - |
| 1788099732 | 15.56° C | 56% | 1022.6 hPa | 0 mm | - | - | - |
| 1788099432 | 15.56° C | 56% | 1022.6 hPa | 0 mm | - | - | - |
| 1788099132 | 15.56° C | 55% | 1022.7 hPa | 0 mm | - | - | - |
| 1788098832 | 15.56° C | 53% | 1022.5 hPa | 0 mm | - | - | - |
| 1788098532 | 15.56° C | 53% | 1022.5 hPa | 0 mm | - | - | - |
| 1788097952 | 15° C | 55% | 1022.3 hPa | 0 mm | - | - | - |
| 1788097652 | 15° C | 56% | 1022.3 hPa | 0 mm | - | - | - |
| 1788097352 | 15° C | 57% | 1022.3 hPa | 0 mm | - | - | - |
| 1788097052 | 14.44° C | 57% | 1022.3 hPa | 0 mm | - | - | - |
| 1788096752 | 14.44° C | 58% | 1022.3 hPa | 0 mm | - | - | - |
| 1788096452 | 14.44° C | 58% | 1022.2 hPa | 0 mm | - | - | - |
* Rain latest hour (hover to see other rain measurements)
** Current wind speed in m/s (hover to see current wind gust speed)